Showing default

FORGESTAR-1, 64546

Orbit data source: Space-Track

FORGESTAR-1, 64546 is a payload satellite owned by Space Forge (UK) in SSO that was launched on Mon, 23 Jun 2025 UTC via an FALCON 9 launch vehicle from the Air Force Western Test Range (AFWTR). Payload-class satellites include a variety of spacecraft equipped with specific instruments for various scientific and technological missions. These include communications satellites like Starlink; space stations such as the ISS; scientific satellites like the Hubble; Earth observation satellites from companies like Planet Labs, Umbra, and HawkEye 360; GPS; miniature CubeSats for education and research; and military/defense satellites.

Loading next visibility...
Identifier
64546, 2025-135U
Orbit
SSO
Country
Flag of UKUK
Related business
Manufacturer
Space Forge
Mission
Operational Commercial Microgravity
Bus & Motor
FORGESTAR, Unknown motor
Mass
~30 kg wet, ~30 kg dry
Launch date (UTC)
2025-06-23 (1 year ago)
Launch vehicle
FALCON 9
Launch site
Air Force Western Test Range (AFWTR)
Object type
Payload
Rocket body
Debris
Shape & HBR
Box, 0.3 m
Radar Cross Section
0.225 m², Medium (>0.1 m² and < 1m²)

Expand to show TLE details & history
Last TLE update: 10 hours ago

TLE from 10 hours ago
0 FORGESTAR-1
1 64546U 25135U   26178.28212314  .00010429  00000-0  42926-3 0  9990
2 64546  97.4699 294.0276 0002015 116.9116 243.2327 15.24313672 56440
Epoch: 2026-06-27T06:46Z
TLE epoch observation values (Epoch: 2026-06-27T06:46:15.439Z)
Latitude
-0.00005°
Longitude
-82.93524°
Altitude
496.565 km
Speed
7.616 km/s
True Right ascension
19h 36m 06s
True Declination
0° 00' 00"
Sunlit
Object was in full shadow at epoch
Visualization orbit readout
Latitude
Unknown
Longitude
Unknown
Altitude
Unknown
Speed
Unknown
Apparent Right ascension
Unknown
Apparent Declination
Unknown
Sunlit
N/A
Visualization observer readout
Local Sidereal Time
04:25:39
Azimuth
Unknown
Elevation
Unknown
Doppler factor
Unknown
Orbital elements
Apogee altitude
491.194 km
Perigee altitude
488.426 km
Semi-major axis
6,867.947 km
Eccentricity
0.0002
Inclination
97.4699°
RAAN
294.0276°
Arg. of periapsis
116.9116°
True anomaly
243.21209°
Mean anomaly
243.2327°
Eccentric anomaly
243.22239°
Mean motion
3.81332 °/min
Orbital period
94.41 mins
BSTAR
0.00042926
Loading maneuver chart data...
Computing Atmospheric mass density...
Loading historical data...
Loading historical data...
Loading historical data...
Loading historical data...
Loading historical data...
Loading historical data...
Loading historical data...

Documentation

Showing up to 5 results
|